Other Public Products
Issued by NWS Grand Forks, ND

Home | Current Version | Previous Version | Text Only | Print | Product List | Glossary Off
Versions: 1 2 3 4 5 6 7 8 9 10 11 12 13 14 15 16 17 18 19 20 21 22 23 24 25 26 27 28 29 30 31 32 33 34 35 36 37 38 39 40 41 42 43 44 45 46 47 48 49 50

000
FPUS83 KFGF 290510
OPUFGF
PRAIRIE TO PINES WEATHER ROUNDUP
NATIONAL WEATHER SERVICE EASTERN NORTH DAKOTA/GRAND FORKS ND
1200 AM CDT WED MAR 29 2017

 **SATELLITE DATA USED TO AUGMENT SKY COVER AT AUTOMATED STATIONS**
 *****  WEATHER ACROSS EASTERN NORTH DAKOTA  *****

CITY           SKY/WX    TMP DP  RH WIND       PRES   REMARKS
GRAND FORKS    FAIR      36  36 100 NW5       30.21F
GRAND FORKS AF FAIR      34  34 100 N6        30.22S FOG
GRAND CITY NWS NOT AVBL
BUXTON         NOT AVBL
DEVILS LAKE    FAIR      36  36 100 SE6       30.19F
FARGO          FAIR      40  38  93 N6        30.19F
WAHPETON ARPT  FAIR      45  36  70 N7        30.18F
$$

 *****  WEATHER ACROSS CENTRAL AND WESTERN NORTH DAKOTA  *****

CITY           SKY/WX    TMP DP  RH WIND       PRES   REMARKS
JAMESTOWN      FAIR      39  37  92 CALM      30.17F
BISMARCK       MOCLDY    48  40  73 S9        30.15F
MINOT          CLOUDY    43  40  89 CALM      30.11F
MINOT AFB      DRIZZLE   41  40  94 E9        30.11F
GARRISON         N/A     44  37  76 SW8       30.11F
WILLISTON      FOG       36  36 100 SW5       30.11S VSB 3/4
DICKINSON      CLOUDY    41  40  96 S5        30.10S
HETTINGER      CLOUDY    44  41  89 S7        30.16R
$$

 *****  OTHER OBSERVATIONS NORTHEAST NORTH DAKOTA  *****

CITY           SKY/WX    TMP DP  RH WIND       PRES   REMARKS
WALHALLA       NOT AVBL
LANGDON        FAIR      36  36 100 E10       30.19F
CAVALIER       FAIR      36  34  93 CALM      30.22F
GRAFTON        FAIR      34  34 100 NW5       30.24S
CANDO          NOT AVBL
FORT TOTTEN      N/A     42  42 100 SE9       29.95S
ROLLA          CLOUDY    34  34 100 S5        30.17F
RUGBY          NOT AVBL
 ***** THE ABOVE OBSERVATIONS ARE NON NWS ARE NOT QUALITY
        CONTROLLED AND MAY MIS-REPORT RAIN FOR SNOW...
$$

 *****  OTHER OBSERVATIONS SOUTHEAST NORTH DAKOTA *****

CITY           SKY/WX    TMP DP  RH WIND       PRES   REMARKS
COOPERSTOWN    FAIR      37  37 100 CALM      30.20F
VALLEY CITY    CLOUDY    43  43 100 E7        30.20F
OAKES          NOT AVBL
GWINNER        CLEAR     41  37  87 MISG      30.17F
SHEYENNE NWR     N/A     41  36  83 NE2       29.95S
BUFFALO        NOT AVBL
WYNDMERE       NOT AVBL
 ***** THE ABOVE OBSERVATIONS ARE NON NWS ARE NOT QUALITY
       CONTROLLED AND MAY MIS-REPORT RAIN FOR SNOW...
$$

  *****  WEATHER ACROSS NORTHERN MINNESOTA  *****

CITY           SKY/WX    TMP DP  RH WIND       PRES   REMARKS
FLAG ISLAND    FAIR      39  21  48 E6        30.26R
WARROAD        FAIR      34  28  80 E3        30.26R
ROSEAU         FAIR      34  28  80 E5        30.25R
HALLOCK        FAIR      37  34  87 E6        30.22S
THF RVR FALLS  FAIR      40  31  70 E9        30.23S
HALSTAD          N/A     36  36  98 NE5         N/A
FOSSTON        FAIR      37  28  70 E3        30.22S
BAUDETTE       FAIR      36  26  67 E7        30.24F
WASKISH        FAIR      37  28  70 E3        30.24S
CROOKSTON      FAIR      43  34  70 E7        30.22S
$$
  *****  WEATHER ACROSS CENTRAL AND WEST MINNESOTA  *****

CITY           SKY/WX    TMP DP  RH WIND       PRES   REMARKS
BEMIDJI        FAIR      34  26  72 NE5       30.22S
PARK RAPIDS    FAIR      41  26  55 CALM      30.20F
WADENA         FAIR      45  28  53 NE5       30.20S
DETROIT LAKES  FAIR      46  32  57 CALM      30.20F
MOORHEAD       FAIR      39  37  93 NW3       30.20F
FERGUS FALLS   FAIR      48  36  61 NE6       30.21F
ELBOW LAKE     FAIR      40  39  95 CALM      30.19F
MORRIS MN      FAIR      39  36  87 NE6       30.16F
STAPLES        FAIR      43  28  56 CALM      30.20F
WHEATON        FAIR      43  37  81 CALM      30.20F
$$
  *****  WEATHER ELSEWHERE ACROSS MINNESOTA  *****

CITY           SKY/WX    TMP DP  RH WIND       PRES   REMARKS
DULUTH         FAIR      37  30  75 E13       30.25S
INTRNTL FALLS  FAIR      37  24  59 E5        30.26S
ELY            FAIR      34  25  69 E5        30.27S
CLOQUET        FAIR      36  28  75 E7        30.25R
BRAINERD       FAIR      36  29  75 CALM      30.21S
HIBBING        FAIR      30  25  81 E3        30.24R
ALEXANDRIA     FAIR      43  33  68 CALM      30.19F
SAINT CLOUD    FAIR      36  30  79 N3        30.19F
MINNEAPOLIS    MOCLDY    51  31  46 NE5       30.19F
$$

  *****  WEATHER ACROSS SOUTH DAKOTA  *****

CITY           SKY/WX    TMP DP  RH WIND       PRES   REMARKS
SIOUX FALLS    CLOUDY    44  37  76 N5        30.13F
BROOKINGS      FAIR      43  36  76 E3        30.15S
WATERTOWN      FAIR      46  36  68 E6        30.16F
HURON          FAIR      44  39  82 E5        30.14S
SISSETON         N/A     41  37  86 N6        30.17F
ABERDEEN       FAIR      45  34  65 E8        30.16F
MITCHELL       FAIR      47  37  68 E6        30.14S
PIERRE         CLOUDY    44  42  93 NW5       30.15S
MOBRIDGE       FAIR      46  39  76 NW5       30.13F
RAPID CITY     CLOUDY    42  41  96 S8        30.13S
$$

  *****  SOME WEATHER IN NEARBY STATES *****

CITY           SKY/WX    TMP DP  RH WIND       PRES   REMARKS
GLASGOW MT     MOCLDY    42  32  67 SE9       30.05S
GREAT FALLS MT FAIR      43  24  47 SW16      30.06S
CHEYENNE WY    CLOUDY    34  33  96 N12       30.08F FOG
SCOTTSBLUFF NE LGT RAIN  40  36  86 NE5       30.11F
OMAHA NE       CLOUDY    49  41  74 E12       30.08S
DES MOINES IA  CLOUDY    50  45  83 E5        30.13R
DAVENPORT IA   FAIR      38  36  92 E6        30.18F
CHICAGO IL     FOG       36  34  92 NE9       30.23R VSB 1
EAU CLAIRE WI  FAIR      35  28  75 CALM      30.20S
LA CROSSE WI   FAIR      44  35  70 SE3       30.21R
$$

  *****  SOME NATIONAL WEATHER *****

CITY           SKY/WX    TMP DP  RH WIND       PRES   REMARKS
LA GUARDIA NY  CLOUDY    44  41  89 NW6       29.93S
RALEIGH NC     FAIR      63  49  60 W3        29.97R
ATLANTA GA     FAIR      65  57  75 NW7       30.01S
NEW ORLEANS LA FAIR      71  68  90 SE9       29.95S
OKLAHOMA CITY  TSTM      52  51  97 N18       29.76S FOG
ALBUQUERQUE NM LGT RAIN  45  37  73 N7        29.81F
SALT LAKE CITY FAIR      42  34  73 NE3       30.21R
LOS ANGELES CA FAIR      68  41  37 N10G18    29.98S
BOISE ID       FAIR      44  31  60 CALM      30.26S
SEATTLE WA     LGT RAIN  50  42  74 SE10      30.17S
$$

*** WEATHER ACROSS MANITOBA...SASKATCHEWAN AND ONTARIO ***
                ***ONTARIO***

CITY           SKY/WX    TMP DP  RH WIND       PRES   REMARKS
GERALDTON      PTCLDY    23  16  74 CALM      30.37R
THUNDER BAY    CLEAR     27  23  86 CALM      30.36S
SIOUX LOOKOUT  CLEAR     28  18  64 E6        30.33R WCI  22
TORONTO        CLEAR     37  30  75 N13       30.17S
BIG TROUT LK   CLEAR     14  10  85 CALM      30.43R
PICKLE LAKE    NOT AVBL
DRYDEN         CLEAR     28  21  74 NE9       30.30S WCI  20
KENORA         MOCLDY    34  19  55 E9        30.27S
$$
                *** MANITOBA***

CITY           SKY/WX    TMP DP  RH WIND       PRES   REMARKS
BRANDON        LGT RAIN  32  30  93 E10       30.19S WCI  24
DAUPHIN        LGT SNOW  32  30  93 E8        30.22F WCI  25
ISLAND LAKE    PTCLDY    23  16  74 SE8       30.34F WCI  14
PILOT MOUND    NOT AVBL
THE PAS        CLOUDY    30  21  69 SE14      30.19F WCI  20
THOMPSON       CLEAR     19  10  68 VRB2      30.30F
WINNIPEG       MOCLDY    36  27  69 E7        30.23F
LYNN LAKE      MOCLDY    19  14  79 SE8       30.18S WCI   9
CHURCHILL      PTCLDY     5   1  85 S12       30.42F WCI -11
GILLAM         MOCLDY    12   5  73 E5        30.39F WCI   4
$$
                ***SASKATCHEWAN***

CITY           SKY/WX    TMP DP  RH WIND       PRES   REMARKS
ESTEVAN        FOG       34  34 100 E10       30.10S VSB 1/8
KINDERSLEY     MOCLDY    39  30  70 S9        29.87S
LLOYDMINSTER   CLOUDY    36  36 100 E10       29.88S FOG
PRINCE ALBERT  CLOUDY    36  32  87 E12       30.02F
REGINA         FOG       36  36 100 SE20      30.03F VSB 1/2
YORKTON        CLOUDY    32  30  93 S8        30.12S W



USA.gov is the U.S. government's official web portal to all federal, state and local government web resources and services.